User: anonymous   Login
Location: San Antonio
(29.4240°N, 98.4930°W)
Time: 00:43:13
(UTC-05:00)
Language:

ISS - Orbit

View from above orbital plane
View from above orbital plane
View from above satellite
View from above satellite

Ground track
Ground track

The orbit data is extracted from the following two-line orbital elements,

1 25544U 98067A   24194.86510664  .00016276  00000-0  29430-3 0  9999
2 25544  51.6371 188.1282 0010269  59.5358 300.6644 15.49787559462531
Epoch (UTC): 12 July 2024 20:45:45
Eccentricity: 0.0010269
inclination: 51.6371°
perigee height: 410 km
apogee height: 424 km
right ascension of ascending node: 188.1282°
argument of perigee: 59.5358°
revolutions per day: 15.49787559
mean anomaly at epoch: 300.6644°
orbit number at epoch: 46253

The dashed part of the orbit path shows where the satellite is in the earth's shadow,  

DLR